Weather History for Menominee, MI

Change the Weather History Date:

Sunday, March 16, 2014

  Actual Average Record
Temperature  
Mean Temperature 8 °F -  
Max Temperature 15 °F 41 °F 60 °F (2003)
Min Temperature 1 °F 22 °F -7 °F (1997)
Degree Days  
Heating Degree Days 57    
Moisture  
Dew Point -2 °F    
Average Humidity 66    
Maximum Humidity 92    
Minimum Humidity 28    
Precipitation  
Precipitation 0.00 in - - ()
Sea Level Pressure  
Sea Level Pressure 30.41 in    
Wind  
Wind Speed 6 mph (ENE)    
Max Wind Speed 12 mph    
Max Gust Speed -    
Visibility 10 miles    
Events      
Averages and records for this station are not official NWS values.
T = Trace of Precipitation, MM = Missing Value Source: NWS Daily Summary

Daily Weather History Graph

Daily Weather History Graph

Search for Another Location

Airport:

Trip Planner

Search our weather history database for the weather conditions in past years. The results will help you decide how hot, cold, wet, or windy it might be!

Date:

Astronomy

Mar. 16, 2014 Rise Set
Actual Time 7:01 AM CDT 6:57 PM CDT
Civil Twilight 6:31 AM CDT 7:27 PM CDT
Nautical Twilight 5:57 AM CDT 8:01 PM CDT
Astronomical Twilight 5:22 AM CDT 8:36 PM CDT
Moon 7:17 PM CDT (3/16) 6:43 AM CDT (3/16)
Length of Visible Light 12h 55m
Length of Day
11h 56m
Full, 100% of the Moon is Illuminated
Mar 16
Full
Mar 16
Full
Mar 23
Last Quarter
Mar 30
New
Apr 7
First Quarter

Hourly Weather History & Observations

Time (CDT) Temp. Windchill Dew Point Humidity Pressure Visibility Wind Dir Wind Speed Gust Speed Precip Events Conditions
12:15 AM 8.6 °F -1.3 °F -0.4 °F 67% 30.47 in 10.0 mi NNE 5.8 mph - N/A   Clear
12:35 AM 8.6 °F -1.3 °F -0.4 °F 67% 30.47 in 10.0 mi NNE 5.8 mph - N/A   Clear
12:55 AM 6.8 °F -2.0 °F -0.4 °F 72% 30.47 in 10.0 mi NNE 4.6 mph - N/A   Clear
1:15 AM 6.8 °F -3.5 °F -0.4 °F 72% 30.48 in 10.0 mi NNE 5.8 mph - N/A   Clear
1:35 AM 6.8 °F -5.9 °F -0.4 °F 72% 30.48 in 10.0 mi NNE 8.1 mph - N/A   Clear
1:55 AM 6.8 °F -2.0 °F -0.4 °F 72% 30.49 in 10.0 mi NNE 4.6 mph - N/A   Clear
2:15 AM 6.8 °F -4.8 °F -0.4 °F 72% 30.49 in 10.0 mi NNE 6.9 mph - N/A   Clear
2:35 AM 5.0 °F -4.1 °F -2.2 °F 72% 30.50 in 10.0 mi NNE 4.6 mph - N/A   Clear
2:55 AM 5.0 °F -4.1 °F -2.2 °F 72% 30.50 in 10.0 mi North 4.6 mph - N/A   Clear
3:15 AM 3.2 °F -7.8 °F -2.2 °F 78% 30.50 in 10.0 mi North 5.8 mph - N/A   Clear
3:35 AM 3.2 °F -9.1 °F -4.0 °F 72% 30.49 in 10.0 mi North 6.9 mph - N/A   Clear
3:55 AM 3.2 °F -10.3 °F -5.8 °F 66% 30.49 in 10.0 mi North 8.1 mph - N/A   Clear
4:15 AM 3.2 °F -10.3 °F -5.8 °F 66% 30.50 in 10.0 mi North 8.1 mph - N/A   Clear
4:35 AM 3.2 °F -9.1 °F -11.2 °F 51% 30.50 in 10.0 mi North 6.9 mph - N/A   Clear
4:55 AM 3.2 °F -7.8 °F -16.6 °F 39% 30.50 in 10.0 mi North 5.8 mph - N/A   Clear
5:15 AM 1.4 °F -11.3 °F -20.2 °F 36% 30.50 in 10.0 mi North 6.9 mph - N/A   Clear
5:35 AM 1.4 °F -9.9 °F -9.4 °F 61% 30.50 in 10.0 mi North 5.8 mph - N/A   Clear
5:55 AM 1.4 °F -9.9 °F -9.4 °F 61% 30.49 in 10.0 mi North 5.8 mph - N/A   Clear
6:15 AM 1.4 °F -9.9 °F -7.6 °F 66% 30.49 in 10.0 mi North 5.8 mph - N/A   Clear
6:35 AM 1.4 °F -9.9 °F -7.6 °F 66% 30.49 in 10.0 mi North 5.8 mph - N/A   Clear
6:55 AM 1.4 °F -9.9 °F -9.4 °F 61% 30.49 in 10.0 mi North 5.8 mph - N/A   Clear
7:15 AM 1.4 °F -9.9 °F -4.0 °F 78% 30.49 in 10.0 mi North 5.8 mph - N/A   Clear
7:35 AM 1.4 °F -8.3 °F -9.4 °F 61% 30.50 in 10.0 mi North 4.6 mph - N/A   Clear
7:55 AM 1.4 °F -6.2 °F -4.0 °F 78% 30.50 in 10.0 mi NNE 3.5 mph - N/A   Clear
8:15 AM 3.2 °F -6.2 °F -4.0 °F 72% 30.51 in 10.0 mi NNE 4.6 mph - N/A   Clear
8:35 AM 3.2 °F -7.8 °F -23.8 °F 28% 30.51 in 10.0 mi NNE 5.8 mph - N/A   Clear
8:55 AM 5.0 °F -6.9 °F -0.4 °F 78% 30.50 in 10.0 mi NE 6.9 mph - N/A   Clear
9:15 AM 5.0 °F -6.9 °F -2.2 °F 72% 30.51 in 10.0 mi NE 6.9 mph - N/A   Clear
9:35 AM 6.8 °F -6.9 °F -0.4 °F 72% 30.51 in 10.0 mi East 9.2 mph - N/A   Clear
9:55 AM 6.8 °F -8.6 °F -0.4 °F 72% 30.51 in 10.0 mi East 11.5 mph - N/A   Clear
10:15 AM 6.8 °F -6.9 °F -0.4 °F 72% 30.51 in 10.0 mi ESE 9.2 mph - N/A   Clear
10:35 AM 6.8 °F -6.9 °F -0.4 °F 72% 30.51 in 10.0 mi ESE 9.2 mph - N/A   Clear
10:55 AM 8.6 °F -5.5 °F -2.2 °F 62% 30.50 in 10.0 mi East 10.4 mph - N/A   Clear
11:15 AM 8.6 °F -5.5 °F -0.4 °F 67% 30.50 in 10.0 mi East 10.4 mph - N/A   Clear
11:35 AM 8.6 °F -2.6 °F -0.4 °F 67% 30.50 in 10.0 mi ESE 6.9 mph - N/A   Clear
11:55 AM 8.6 °F -4.7 °F -0.4 °F 67% 30.49 in 10.0 mi ESE 9.2 mph - N/A   Clear
12:15 PM 10.4 °F -0.4 °F -0.4 °F 62% 30.48 in 10.0 mi ESE 6.9 mph - N/A   Clear
12:35 PM 10.4 °F 0.8 °F -0.4 °F 62% 30.48 in 10.0 mi ESE 5.8 mph - N/A   Clear
12:55 PM 10.4 °F 2.2 °F 1.4 °F 67% 30.47 in 10.0 mi SE 4.6 mph - N/A   Clear
1:15 PM 12.2 °F 0.7 °F -0.4 °F 57% 30.46 in 10.0 mi ESE 8.1 mph - N/A   Clear
1:35 PM 12.2 °F 2.9 °F -2.2 °F 53% 30.45 in 10.0 mi East 5.8 mph - N/A   Clear
1:55 PM 12.2 °F 4.3 °F -4.0 °F 48% 30.45 in 10.0 mi ESE 4.6 mph - N/A   Clear
2:15 PM 12.2 °F 0.7 °F -5.8 °F 45% 30.43 in 10.0 mi ESE 8.1 mph - N/A   Clear
2:35 PM 14.0 °F 2.9 °F -4.0 °F 45% 30.42 in 10.0 mi ESE 8.1 mph - N/A   Clear
2:55 PM 14.0 °F 2.9 °F -5.8 °F 41% 30.41 in 10.0 mi SE 8.1 mph - N/A   Clear
3:15 PM 15.8 °F 6.1 °F -7.6 °F 35% 30.40 in 10.0 mi SE 6.9 mph - N/A   Clear
3:35 PM 14.0 °F 2.9 °F -7.6 °F 38% 30.39 in 10.0 mi ESE 8.1 mph - N/A   Clear
3:55 PM 15.8 °F 6.1 °F -2.2 °F 45% 30.38 in 10.0 mi ESE 6.9 mph - N/A   Clear
4:15 PM 15.8 °F 6.1 °F -0.4 °F 49% 30.37 in 10.0 mi ESE 6.9 mph - N/A   Clear
4:35 PM 15.8 °F 5.1 °F 3.2 °F 58% 30.35 in 10.0 mi SE 8.1 mph - N/A   Clear
4:55 PM 15.8 °F 7.2 °F 5.0 °F 62% 30.35 in 10.0 mi ESE 5.8 mph - N/A   Clear
5:15 PM 15.8 °F 5.1 °F 3.2 °F 58% 30.34 in 10.0 mi SE 8.1 mph - N/A   Clear
5:35 PM 15.8 °F 4.2 °F 3.2 °F 58% 30.33 in 10.0 mi SE 9.2 mph - N/A   Clear
5:55 PM 15.8 °F 5.1 °F 3.2 °F 58% 30.33 in 10.0 mi SE 8.1 mph - N/A   Clear
6:15 PM 15.8 °F 7.2 °F 3.2 °F 58% 30.32 in 10.0 mi SSE 5.8 mph - N/A   Clear
6:35 PM 14.0 °F 8.2 °F 3.2 °F 62% 30.31 in 10.0 mi South 3.5 mph - N/A   Clear
6:55 PM 14.0 °F 5.1 °F 5.0 °F 67% 30.30 in 10.0 mi SSE 5.8 mph - N/A   Clear
7:15 PM 12.2 °F 6.1 °F 6.8 °F 79% 30.29 in 10.0 mi South 3.5 mph - N/A   Clear
7:35 PM 12.2 °F - 5.0 °F 73% 30.29 in 10.0 mi Calm Calm - N/A   Clear
7:55 PM 12.2 °F - 6.8 °F 79% 30.28 in 10.0 mi Calm Calm - N/A   Clear
8:15 PM 10.4 °F - 5.0 °F 79% 30.27 in 10.0 mi Calm Calm - N/A   Clear
8:35 PM 8.6 °F - 1.4 °F 73% 30.25 in 10.0 mi Calm Calm - N/A   Clear
8:55 PM 8.6 °F - 3.2 °F 79% 30.25 in 10.0 mi Calm Calm - N/A   Clear
9:15 PM 6.8 °F - 3.2 °F 85% 30.25 in 10.0 mi Calm Calm - N/A   Clear
9:35 PM 6.8 °F - 3.2 °F 85% 30.24 in 10.0 mi Calm Calm - N/A   Clear
9:55 PM 6.8 °F - 3.2 °F 85% 30.23 in 10.0 mi Calm Calm - N/A   Clear
10:15 PM 6.8 °F - 3.2 °F 85% 30.22 in 10.0 mi Calm Calm - N/A   Clear
10:35 PM 6.8 °F - 3.2 °F 85% 30.22 in 10.0 mi Calm Calm - N/A   Clear
10:55 PM 6.8 °F - 5.0 °F 92% 30.22 in 10.0 mi Calm Calm - N/A   Clear
11:15 PM 8.6 °F - 6.8 °F 92% 30.22 in 10.0 mi Calm Calm - N/A   Clear
11:35 PM 6.8 °F - 3.2 °F 85% 30.19 in 10.0 mi Calm Calm - N/A   Clear
11:55 PM 6.8 °F - 3.2 °F 85% 30.18 in 10.0 mi Calm Calm - N/A   Clear